Location: Ay?beleni
(36.6500°N, 30.3000°E)
Time: 04:34:38
(UTC+00:00)

DMSP B5D2-2 - Pass Details

Date: 16 October 2021
Orbit: 789 x 806 km, 98.3° (Epoch: 08 December)

Event Time Altitude Azimuth Distance (km) Brightness Sun altitude
Rises 16:23:48 0° 19° (NNE) 3,317 7.1 -13.3°
Reaches altitude 10° 16:26:14 10° 26° (NNE) 2,380 6.3 -13.8°
Maximum altitude 16:31:17 46° 99° (E) 1,062 4.3 -14.8°
Drops below altitude 10° 16:36:16 10° 172° (S) 2,353 6.4 -15.8°
Sets 16:38:40 0° 178° (S) 3,276 7.3 -16.3°
